Location: Brahman Valley
(40.6513°N, 111.8855°W)
Time: 08:15:54
(UTC+00:00)

Tiros 1 despin weight - Pass Details

Date: 15 May 2021
Orbit: 594 x 641 km, 48.2° (Epoch: 22 June)

Event Time Altitude Azimuth Distance (km) Brightness Sun altitude
Rises 05:04:36 0° 277° (W) 2,930 ? -22.2°
Reaches altitude 10° 05:07:07 10° 287° (WNW) 2,026 ? -22.5°
Maximum altitude 05:11:22 34° 352° (N) 1,059 ? -22.9°
Drops below altitude 10° 05:15:39 10° 58° (ENE) 2,033 ? -23.4°
Enters shadow 05:17:01 - 64° (ENE) 2,519 ? -23.5°
Sets 05:18:10 0° 68° (ENE) 2,941 - -23.6°
